Regional Weather Roundup
Issued by NWS Goodland, KS

Home | Current Version | Previous Version | Text Only | Print | Product List | Glossary Off
Versions: 1 2 3 4 5 6 7 8 9 10 11 12 13 14 15 16 17 18 19 20 21 22 23 24 25 26 27 28 29 30 31 32 33 34 35 36 37 38 39 40 41 42 43 44 45 46 47 48 49 50

000
ASUS43 KGLD 201908
RWRGLD

GOODLAND FORECAST AREA HOURLY WEATHER ROUNDUP
NATIONAL WEATHER SERVICE GOODLAND KS
100 PM MDT THU JUL 20 2017

...OFFICIAL OBSERVATIONS...

CITY           SKY/WX    TMP DP  RH WIND       PRES   REMARKS
GOODLAND KS    SUNNY     91  63  39 S9        30.04F
HILL CITY KS   MOSUNNY  103  60  24 S12G20    29.97F HX 104
IMPERIAL NEB   SUNNY     95  55  26 CALM      30.02F
MCCOOK NEB     SUNNY     97  64  33 E10       29.99F
AKRON CO       SUNNY     91  55  29 VRB7      30.13F
BURLINGTON CO  SUNNY     91  62  37 VRB5      30.08F
LIMON CO       SUNNY     88  56  33 NE8       30.19F
$$

...UNOFFICIAL OBSERVATIONS...

CITY           SKY/WX    TMP DP  RH WIND       PRES   REMARKS
LENORA KS        N/A     98  32  10 MISG        N/A
NORTON KS      SUNNY     99  54  22 S9G21     29.97
TRENTON NEB      N/A     98  32  10 E9          N/A
KIT CARSON CO    N/A     90  62  38 MISG        N/A
YUMA CO        FAIR      86  46  25 NE9       30.09F
$$




USA.gov is the U.S. government's official web portal to all federal, state and local government web resources and services.